Location: Taupo
(38.6830°S, 176.0830°E)
Time: 16:11:10
(UTC+12:00)

Cosmos 1340 Rocket - Pass Details

Date: 24 January 2019
Orbit: 530 x 558 km, 81.2° (Epoch: 20 April)

Event Time Altitude Azimuth Distance (km) Brightness Sun altitude
Exits shadow 23:48:09 38° 180° (S) 840 4.1 -27.6°
Drops below altitude 10° 23:50:44 10° 174° (S) 1,827 6.2 -27.8°
Sets 23:52:56 0° 172° (S) 2,732 7.2 -28.0°
